Location: Cassano d�Adda
(45.5333°N, 9.5167°E)
Time: 15:51:11
(UTC+00:00)

Cosmos 2195 Rocket - Pass Details

Date: 08 December 2019
Orbit: 949 x 993 km, 82.9° (Epoch: 18 January)

Event Time Altitude Azimuth Distance (km) Brightness Sun altitude
Rises 17:41:52 0° 186° (S) 3,638 7.7 -20.8°
Reaches altitude 10° 17:44:21 10° 187° (S) 2,701 7.0 -21.2°
Maximum altitude 17:50:33 89° 275° (W) 983 4.4 -22.3°
Drops below altitude 10° 17:56:53 10° 8° (N) 2,750 6.7 -23.4°
Sets 17:59:25 0° 9° (N) 3,707 7.4 -23.8°
